Time,TemperatureF,DewpointF,PressureIn,WindDirection,WindDirectionDegrees,WindSpeedMPH,WindSpeedGustMPH,Humidity,HourlyPrecipIn,Conditions,Clouds,dailyrainin,SoftwareType,DateUTC
2013-08-11 00:02:00,64.2,48.7,30.06,SE,135,0.0,0.0,57,0.00,,,0.00,meteohub,2013-08-11 04:02:00,
2013-08-11 00:07:00,63.9,48.4,30.06,SE,135,0.0,0.0,57,0.00,,,0.00,meteohub,2013-08-11 04:07:00,
2013-08-11 00:12:00,63.7,48.6,30.06,SE,135,0.0,0.0,58,0.00,,,0.00,meteohub,2013-08-11 04:12:00,
2013-08-11 00:17:00,63.7,48.6,30.06,SE,135,0.0,0.0,58,0.00,,,0.00,meteohub,2013-08-11 04:17:00,
2013-08-11 00:22:00,63.5,48.6,30.06,SE,135,0.0,0.0,58,0.00,,,0.00,meteohub,2013-08-11 04:22:00,
2013-08-11 00:27:00,63.3,48.7,30.06,SE,135,0.0,0.0,59,0.00,,,0.00,meteohub,2013-08-11 04:27:00,
2013-08-11 00:32:00,63.1,48.6,30.06,SE,135,0.0,0.0,59,0.00,,,0.00,meteohub,2013-08-11 04:32:00,
2013-08-11 00:37:00,63.0,49.3,30.06,SE,135,0.0,0.0,61,0.00,,,0.00,meteohub,2013-08-11 04:37:00,
2013-08-11 00:42:00,62.8,49.6,30.06,SE,135,0.0,0.0,62,0.00,,,0.00,meteohub,2013-08-11 04:42:00,
2013-08-11 00:47:00,62.6,49.5,30.06,SE,135,0.0,0.0,62,0.00,,,0.00,meteohub,2013-08-11 04:47:00,
2013-08-11 00:52:00,62.4,49.6,30.06,SE,135,0.0,0.0,63,0.00,,,0.00,meteohub,2013-08-11 04:52:00,
2013-08-11 00:57:00,62.2,49.5,30.06,SE,135,0.0,0.0,63,0.00,,,0.00,meteohub,2013-08-11 04:57:00,
2013-08-11 01:02:00,62.1,49.8,30.06,SE,135,0.0,0.0,64,0.00,,,0.00,meteohub,2013-08-11 05:02:00,
2013-08-11 01:07:00,61.7,50.2,30.09,SE,135,0.0,0.0,66,0.00,,,0.00,meteohub,2013-08-11 05:07:00,
2013-08-11 01:12:00,61.5,50.5,30.09,SE,135,0.0,0.0,67,0.00,,,0.00,meteohub,2013-08-11 05:12:00,
2013-08-11 01:17:00,61.2,50.5,30.09,SE,135,0.0,0.0,68,0.00,,,0.00,meteohub,2013-08-11 05:17:00,
2013-08-11 01:22:00,61.0,50.7,30.09,SE,135,0.0,0.0,69,0.00,,,0.00,meteohub,2013-08-11 05:22:00,
2013-08-11 01:27:00,60.8,50.5,30.09,SE,135,0.0,0.0,69,0.00,,,0.00,meteohub,2013-08-11 05:27:00,
2013-08-11 01:32:00,60.8,50.5,30.09,SE,135,0.0,0.0,69,0.00,,,0.00,meteohub,2013-08-11 05:32:00,
2013-08-11 01:42:00,60.3,50.9,30.09,SE,135,0.0,0.0,71,0.00,,,0.00,meteohub,2013-08-11 05:42:00,
2013-08-11 01:52:00,60.3,50.9,30.09,SE,135,0.0,0.0,71,0.00,,,0.00,meteohub,2013-08-11 05:52:00,
2013-08-11 01:57:00,60.1,51.1,30.09,SE,135,0.0,0.0,72,0.00,,,0.00,meteohub,2013-08-11 05:57:00,
2013-08-11 02:02:00,60.1,51.1,30.09,SE,135,0.0,0.0,72,0.00,,,0.00,meteohub,2013-08-11 06:02:00,
2013-08-11 02:07:00,59.7,50.7,30.09,SE,135,0.0,0.0,72,0.00,,,0.00,meteohub,2013-08-11 06:07:00,
2013-08-11 02:12:00,59.7,50.4,30.09,SE,135,0.0,0.0,71,0.00,,,0.00,meteohub,2013-08-11 06:12:00,
2013-08-11 02:17:00,59.7,50.7,30.09,SE,135,0.0,0.0,72,0.00,,,0.00,meteohub,2013-08-11 06:17:00,
2013-08-11 02:22:00,59.5,50.2,30.09,SE,135,0.0,0.0,71,0.00,,,0.00,meteohub,2013-08-11 06:22:00,
2013-08-11 02:27:00,59.4,50.7,30.09,SE,135,0.0,0.0,73,0.00,,,0.00,meteohub,2013-08-11 06:27:00,
2013-08-11 02:32:00,59.4,50.7,30.09,SE,135,0.0,0.0,73,0.00,,,0.00,meteohub,2013-08-11 06:32:00,
2013-08-11 02:37:00,59.2,50.2,30.09,SE,135,0.0,0.0,72,0.00,,,0.00,meteohub,2013-08-11 06:37:00,
2013-08-11 02:42:00,59.2,50.5,30.09,South,180,0.0,0.0,73,0.00,,,0.00,meteohub,2013-08-11 06:42:00,
2013-08-11 02:47:00,59.0,50.7,30.09,South,180,0.0,0.0,74,0.00,,,0.00,meteohub,2013-08-11 06:47:00,
2013-08-11 02:52:00,58.5,50.2,30.09,South,180,0.0,0.0,74,0.00,,,0.00,meteohub,2013-08-11 06:52:00,
2013-08-11 02:57:00,58.1,50.5,30.09,South,180,0.0,0.0,76,0.00,,,0.00,meteohub,2013-08-11 06:57:00,
2013-08-11 03:02:00,58.1,50.9,30.09,South,180,0.0,0.0,77,0.00,,,0.00,meteohub,2013-08-11 07:02:00,
2013-08-11 03:07:00,58.1,51.3,30.09,South,180,0.0,0.0,78,0.00,,,0.00,meteohub,2013-08-11 07:07:00,
2013-08-11 03:12:00,57.9,51.1,30.09,South,180,0.0,0.0,78,0.00,,,0.00,meteohub,2013-08-11 07:12:00,
2013-08-11 03:22:00,57.7,50.9,30.12,South,180,0.0,0.0,78,0.00,,,0.00,meteohub,2013-08-11 07:22:00,
2013-08-11 03:27:00,57.7,50.9,30.12,South,180,0.0,0.0,78,0.00,,,0.00,meteohub,2013-08-11 07:27:00,
2013-08-11 03:32:00,57.6,51.4,30.12,South,180,0.0,0.0,80,0.00,,,0.00,meteohub,2013-08-11 07:32:00,
2013-08-11 03:37:00,57.6,51.1,30.12,South,180,0.0,0.0,79,0.00,,,0.00,meteohub,2013-08-11 07:37:00,
2013-08-11 03:42:00,57.4,50.5,30.12,South,180,0.0,0.0,78,0.00,,,0.00,meteohub,2013-08-11 07:42:00,
2013-08-11 03:47:00,57.4,50.9,30.12,South,180,0.0,0.0,79,0.00,,,0.00,meteohub,2013-08-11 07:47:00,
2013-08-11 03:52:00,57.4,51.3,30.12,South,180,0.0,0.0,80,0.00,,,0.00,meteohub,2013-08-11 07:52:00,
2013-08-11 03:57:00,57.2,51.1,30.12,South,180,0.0,0.0,80,0.00,,,0.00,meteohub,2013-08-11 07:57:00,
2013-08-11 04:02:00,56.7,50.5,30.12,South,180,0.0,0.0,80,0.00,,,0.00,meteohub,2013-08-11 08:02:00,
2013-08-11 04:07:00,56.3,50.5,30.12,South,180,0.0,0.0,81,0.00,,,0.00,meteohub,2013-08-11 08:07:00,
2013-08-11 04:12:00,56.3,50.9,30.12,South,180,0.0,0.0,82,0.00,,,0.00,meteohub,2013-08-11 08:12:00,
2013-08-11 04:17:00,56.3,51.3,30.12,South,180,0.0,0.0,83,0.00,,,0.00,meteohub,2013-08-11 08:17:00,
2013-08-11 04:22:00,56.3,51.3,30.12,South,180,0.0,0.0,83,0.00,,,0.00,meteohub,2013-08-11 08:22:00,
2013-08-11 04:27:00,56.3,51.6,30.12,SW,225,0.0,0.0,84,0.00,,,0.00,meteohub,2013-08-11 08:27:00,
2013-08-11 04:32:00,56.3,51.6,30.12,SW,225,0.0,0.0,84,0.00,,,0.00,meteohub,2013-08-11 08:32:00,
2013-08-11 04:37:00,56.3,51.8,30.12,SW,225,0.0,0.0,85,0.00,,,0.00,meteohub,2013-08-11 08:37:00,
2013-08-11 04:47:00,55.9,51.4,30.12,SW,225,0.0,0.0,85,0.00,,,0.00,meteohub,2013-08-11 08:47:00,
2013-08-11 04:57:00,55.9,51.4,30.12,South,180,0.0,0.0,85,0.00,,,0.00,meteohub,2013-08-11 08:57:00,
2013-08-11 05:07:00,55.9,51.4,30.12,South,180,0.0,0.0,85,0.00,,,0.00,meteohub,2013-08-11 09:07:00,
2013-08-11 05:12:00,55.9,51.8,30.12,South,180,0.0,0.0,86,0.00,,,0.00,meteohub,2013-08-11 09:12:00,
2013-08-11 05:17:00,55.6,51.4,30.12,South,180,0.0,0.0,86,0.00,,,0.00,meteohub,2013-08-11 09:17:00,
2013-08-11 05:22:00,55.6,51.4,30.09,South,180,0.0,0.0,86,0.00,,,0.00,meteohub,2013-08-11 09:22:00,
2013-08-11 05:27:00,55.6,51.8,30.09,South,180,0.0,0.0,87,0.00,,,0.00,meteohub,2013-08-11 09:27:00,
2013-08-11 05:37:00,55.8,52.3,30.12,South,180,0.0,0.0,88,0.00,,,0.00,meteohub,2013-08-11 09:37:00,
2013-08-11 05:42:00,55.8,52.3,30.12,South,180,0.0,0.0,88,0.00,,,0.00,meteohub,2013-08-11 09:42:00,
2013-08-11 05:47:00,55.9,52.5,30.12,South,180,0.0,0.0,88,0.00,,,0.00,meteohub,2013-08-11 09:47:00,
2013-08-11 05:57:00,55.9,52.5,30.12,South,180,0.0,0.0,88,0.00,,,0.00,meteohub,2013-08-11 09:57:00,
2013-08-11 06:02:00,55.9,52.5,30.12,South,180,0.0,0.0,88,0.00,,,0.00,meteohub,2013-08-11 10:02:00,
2013-08-11 06:07:00,55.9,52.2,30.12,South,180,0.0,0.0,87,0.00,,,0.00,meteohub,2013-08-11 10:07:00,
2013-08-11 06:12:00,55.8,52.0,30.12,South,180,0.0,0.0,87,0.00,,,0.00,meteohub,2013-08-11 10:12:00,
2013-08-11 06:22:00,55.6,51.8,30.12,South,180,0.0,0.0,87,0.00,,,0.00,meteohub,2013-08-11 10:22:00,
2013-08-11 06:32:00,55.9,52.5,30.12,SSW,202,0.0,0.0,88,0.00,,,0.00,meteohub,2013-08-11 10:32:00,
2013-08-11 06:37:00,56.1,52.7,30.14,SSW,202,0.0,0.0,88,0.00,,,0.00,meteohub,2013-08-11 10:37:00,
2013-08-11 06:42:00,56.1,52.7,30.14,South,180,0.0,0.0,88,0.00,,,0.00,meteohub,2013-08-11 10:42:00,
2013-08-11 06:52:00,56.5,52.7,30.14,South,180,0.0,0.0,87,0.00,,,0.00,meteohub,2013-08-11 10:52:00,
2013-08-11 06:57:00,56.7,52.9,30.14,South,180,0.0,0.0,87,0.00,,,0.00,meteohub,2013-08-11 10:57:00,
2013-08-11 07:02:00,56.8,52.7,30.14,South,180,1.0,0.0,86,0.00,,,0.00,meteohub,2013-08-11 11:02:00,
2013-08-11 07:07:00,57.2,52.7,30.14,South,180,0.0,3.0,85,0.00,,,0.00,meteohub,2013-08-11 11:07:00,
2013-08-11 07:12:00,57.4,52.5,30.14,South,180,0.0,3.0,84,0.00,,,0.00,meteohub,2013-08-11 11:12:00,
2013-08-11 07:22:00,58.1,52.9,30.17,SSE,158,0.0,2.0,83,0.00,,,0.00,meteohub,2013-08-11 11:22:00,
2013-08-11 07:27:00,58.3,53.1,30.17,SSE,158,0.0,0.0,83,0.00,,,0.00,meteohub,2013-08-11 11:27:00,
2013-08-11 07:32:00,58.8,53.4,30.17,SSE,158,0.0,0.0,82,0.00,,,0.00,meteohub,2013-08-11 11:32:00,
2013-08-11 07:37:00,59.0,53.6,30.14,SSE,158,0.0,0.0,82,0.00,,,0.00,meteohub,2013-08-11 11:37:00,
2013-08-11 07:42:00,59.5,53.8,30.14,SSE,158,3.0,3.0,81,0.00,,,0.00,meteohub,2013-08-11 11:42:00,
2013-08-11 07:52:00,60.4,54.0,30.14,South,180,0.0,3.0,79,0.00,,,0.00,meteohub,2013-08-11 11:52:00,
2013-08-11 07:57:00,61.0,54.1,30.14,SSE,158,1.0,3.0,78,0.00,,,0.00,meteohub,2013-08-11 11:57:00,
2013-08-11 08:02:00,61.3,54.5,30.14,South,180,2.0,4.0,78,0.00,,,0.00,meteohub,2013-08-11 12:02:00,
2013-08-11 08:07:00,61.3,54.5,30.14,SSW,202,0.0,4.0,78,0.00,,,0.00,meteohub,2013-08-11 12:07:00,
2013-08-11 08:12:00,61.5,54.7,30.14,SSW,202,1.0,4.0,78,0.00,,,0.00,meteohub,2013-08-11 12:12:00,
2013-08-11 08:17:00,61.7,54.9,30.14,South,180,0.0,2.0,78,0.00,,,0.00,meteohub,2013-08-11 12:17:00,
2013-08-11 08:22:00,62.2,54.9,30.14,SW,225,0.0,1.0,77,0.00,,,0.00,meteohub,2013-08-11 12:22:00,
2013-08-11 08:27:00,62.6,55.2,30.14,SSW,202,0.0,4.0,77,0.00,,,0.00,meteohub,2013-08-11 12:27:00,
2013-08-11 08:32:00,63.0,55.2,30.14,South,180,0.0,4.0,76,0.00,,,0.00,meteohub,2013-08-11 12:32:00,
2013-08-11 08:37:00,63.1,55.4,30.14,SW,225,0.0,4.0,76,0.00,,,0.00,meteohub,2013-08-11 12:37:00,
2013-08-11 08:42:00,63.5,55.4,30.14,South,180,0.0,2.0,75,0.00,,,0.00,meteohub,2013-08-11 12:42:00,
2013-08-11 08:52:00,64.2,55.4,30.17,South,180,1.0,3.0,73,0.00,,,0.00,meteohub,2013-08-11 12:52:00,
2013-08-11 08:57:00,64.6,55.4,30.17,SSW,202,2.0,3.0,72,0.00,,,0.00,meteohub,2013-08-11 12:57:00,
2013-08-11 09:02:00,64.9,55.8,30.17,SW,225,2.0,3.0,72,0.00,,,0.00,meteohub,2013-08-11 13:02:00,
2013-08-11 09:07:00,65.5,55.8,30.14,SW,225,2.0,3.0,71,0.00,,,0.00,meteohub,2013-08-11 13:07:00,
2013-08-11 09:12:00,65.8,55.8,30.14,NNE,22,0.0,3.0,70,0.00,,,0.00,meteohub,2013-08-11 13:12:00,
2013-08-11 09:17:00,66.2,55.8,30.14,SW,225,2.0,3.0,69,0.00,,,0.00,meteohub,2013-08-11 13:17:00,
2013-08-11 09:22:00,66.4,55.6,30.14,SW,225,1.0,3.0,68,0.00,,,0.00,meteohub,2013-08-11 13:22:00,
2013-08-11 09:32:00,67.1,55.8,30.14,NNW,338,0.0,4.0,67,0.00,,,0.00,meteohub,2013-08-11 13:32:00,
2013-08-11 09:37:00,67.1,55.4,30.14,WNW,292,0.0,4.0,66,0.00,,,0.00,meteohub,2013-08-11 13:37:00,
2013-08-11 09:42:00,67.5,55.2,30.14,NW,315,0.0,3.0,65,0.00,,,0.00,meteohub,2013-08-11 13:42:00,
2013-08-11 09:47:00,67.6,52.9,30.14,NNW,338,2.0,3.0,59,0.00,,,0.00,meteohub,2013-08-11 13:47:00,
2013-08-11 09:52:00,68.0,51.3,30.14,North,0,2.0,3.0,55,0.00,,,0.00,meteohub,2013-08-11 13:52:00,
2013-08-11 10:02:00,68.7,52.3,30.14,NW,315,0.0,3.0,56,0.00,,,0.00,meteohub,2013-08-11 14:02:00,
2013-08-11 10:07:00,69.3,53.4,30.14,NW,315,2.0,3.0,57,0.00,,,0.00,meteohub,2013-08-11 14:07:00,
2013-08-11 10:12:00,69.6,52.7,30.14,WNW,292,0.0,3.0,55,0.00,,,0.00,meteohub,2013-08-11 14:12:00,
2013-08-11 10:17:00,70.2,52.2,30.14,WSW,248,0.0,3.0,53,0.00,,,0.00,meteohub,2013-08-11 14:17:00,
2013-08-11 10:27:00,70.7,52.2,30.14,West,270,3.0,4.0,52,0.00,,,0.00,meteohub,2013-08-11 14:27:00,
2013-08-11 10:32:00,70.5,51.6,30.14,SW,225,2.0,4.0,51,0.00,,,0.00,meteohub,2013-08-11 14:32:00,
2013-08-11 10:37:00,70.5,51.1,30.14,SW,225,4.0,4.0,50,0.00,,,0.00,meteohub,2013-08-11 14:37:00,
2013-08-11 10:47:00,70.9,50.2,30.14,SSW,202,0.0,4.0,48,0.00,,,0.00,meteohub,2013-08-11 14:47:00,
2013-08-11 10:52:00,70.9,50.2,30.14,NNW,338,2.0,4.0,48,0.00,,,0.00,meteohub,2013-08-11 14:52:00,
2013-08-11 10:57:00,70.3,48.0,30.14,NNW,338,2.0,3.0,45,0.00,,,0.00,meteohub,2013-08-11 14:57:00,
2013-08-11 11:07:00,70.5,48.7,30.12,WNW,292,0.0,3.0,46,0.00,,,0.00,meteohub,2013-08-11 15:07:00,
2013-08-11 11:12:00,70.9,49.6,30.12,NNW,338,2.0,3.0,47,0.00,,,0.00,meteohub,2013-08-11 15:12:00,
2013-08-11 11:17:00,70.9,47.8,30.12,NNW,338,2.0,4.0,44,0.00,,,0.00,meteohub,2013-08-11 15:17:00,
2013-08-11 11:22:00,70.9,47.3,30.12,NNW,338,2.0,4.0,43,0.00,,,0.00,meteohub,2013-08-11 15:22:00,
2013-08-11 11:27:00,70.9,47.3,30.12,NNW,338,2.0,4.0,43,0.00,,,0.00,meteohub,2013-08-11 15:27:00,
2013-08-11 11:32:00,71.1,47.5,30.12,WNW,292,1.0,4.0,43,0.00,,,0.00,meteohub,2013-08-11 15:32:00,
2013-08-11 11:37:00,71.4,48.4,30.12,West,270,1.0,4.0,44,0.00,,,0.00,meteohub,2013-08-11 15:37:00,
2013-08-11 11:47:00,72.0,48.9,30.12,NW,315,2.0,5.0,44,0.00,,,0.00,meteohub,2013-08-11 15:47:00,
2013-08-11 11:52:00,72.0,48.9,30.12,SW,225,3.0,5.0,44,0.00,,,0.00,meteohub,2013-08-11 15:52:00,
2013-08-11 11:57:00,72.5,50.0,30.12,WNW,292,3.0,6.0,45,0.00,,,0.00,meteohub,2013-08-11 15:57:00,
2013-08-11 12:02:00,71.6,48.0,30.12,NNW,338,3.0,6.0,43,0.00,,,0.00,meteohub,2013-08-11 16:02:00,
2013-08-11 12:07:00,71.2,48.2,30.12,NNW,338,2.0,6.0,44,0.00,,,0.00,meteohub,2013-08-11 16:07:00,
2013-08-11 12:17:00,71.2,48.7,30.12,WNW,292,0.0,4.0,45,0.00,,,0.00,meteohub,2013-08-11 16:17:00,
2013-08-11 12:27:00,71.4,48.4,30.12,NNW,338,3.0,4.0,44,0.00,,,0.00,meteohub,2013-08-11 16:27:00,
2013-08-11 12:32:00,71.8,48.0,30.12,NW,315,2.0,4.0,43,0.00,,,0.00,meteohub,2013-08-11 16:32:00,
2013-08-11 12:37:00,71.8,48.7,30.09,WNW,292,4.0,4.0,44,0.00,,,0.00,meteohub,2013-08-11 16:37:00,
2013-08-11 12:47:00,72.1,49.1,30.09,NNW,338,2.0,4.0,44,0.00,,,0.00,meteohub,2013-08-11 16:47:00,
2013-08-11 12:57:00,72.1,48.4,30.12,NNW,338,1.0,4.0,43,0.00,,,0.00,meteohub,2013-08-11 16:57:00,
2013-08-11 13:02:00,72.1,48.4,30.12,NW,315,1.0,4.0,43,0.00,,,0.00,meteohub,2013-08-11 17:02:00,
2013-08-11 13:07:00,72.1,48.4,30.12,NNW,338,2.0,4.0,43,0.00,,,0.00,meteohub,2013-08-11 17:07:00,
2013-08-11 13:12:00,72.3,48.6,30.12,WNW,292,2.0,4.0,43,0.00,,,0.00,meteohub,2013-08-11 17:12:00,
2013-08-11 13:17:00,72.3,48.6,30.12,WNW,292,2.0,4.0,43,0.00,,,0.00,meteohub,2013-08-11 17:17:00,
2013-08-11 13:27:00,72.3,48.6,30.12,North,0,2.0,3.0,43,0.00,,,0.00,meteohub,2013-08-11 17:27:00,
2013-08-11 13:32:00,72.5,48.7,30.12,NW,315,2.0,3.0,43,0.00,,,0.00,meteohub,2013-08-11 17:32:00,
2013-08-11 13:37:00,72.7,48.9,30.12,NNW,338,0.0,3.0,43,0.00,,,0.00,meteohub,2013-08-11 17:37:00,
2013-08-11 13:42:00,72.7,48.9,30.12,NW,315,2.0,3.0,43,0.00,,,0.00,meteohub,2013-08-11 17:42:00,
2013-08-11 13:47:00,72.9,49.1,30.12,North,0,3.0,5.0,43,0.00,,,0.00,meteohub,2013-08-11 17:47:00,
2013-08-11 13:52:00,72.9,49.1,30.12,NNW,338,1.0,5.0,43,0.00,,,0.00,meteohub,2013-08-11 17:52:00,
2013-08-11 14:02:00,73.2,49.5,30.12,NW,315,2.0,4.0,43,0.00,,,0.00,meteohub,2013-08-11 18:02:00,
2013-08-11 14:12:00,73.2,49.5,30.09,North,0,2.0,4.0,43,0.00,,,0.00,meteohub,2013-08-11 18:12:00,
2013-08-11 14:17:00,73.4,48.9,30.09,NNW,338,2.0,4.0,42,0.00,,,0.00,meteohub,2013-08-11 18:17:00,
2013-08-11 14:22:00,73.4,48.9,30.09,WNW,292,0.0,4.0,42,0.00,,,0.00,meteohub,2013-08-11 18:22:00,
2013-08-11 14:27:00,73.6,49.6,30.09,NW,315,3.0,4.0,43,0.00,,,0.00,meteohub,2013-08-11 18:27:00,
2013-08-11 14:32:00,73.6,49.6,30.09,NW,315,1.0,3.0,43,0.00,,,0.00,meteohub,2013-08-11 18:32:00,
2013-08-11 14:37:00,73.6,48.4,30.09,NNW,338,3.0,3.0,41,0.00,,,0.00,meteohub,2013-08-11 18:37:00,
2013-08-11 14:42:00,73.6,49.1,30.09,NW,315,2.0,5.0,42,0.00,,,0.00,meteohub,2013-08-11 18:42:00,
2013-08-11 14:47:00,73.6,49.1,30.09,NNW,338,3.0,5.0,42,0.00,,,0.00,meteohub,2013-08-11 18:47:00,
2013-08-11 14:52:00,73.8,49.3,30.09,North,0,2.0,3.0,42,0.00,,,0.00,meteohub,2013-08-11 18:52:00,
2013-08-11 14:57:00,73.9,49.5,30.09,NNW,338,0.0,3.0,42,0.00,,,0.00,meteohub,2013-08-11 18:57:00,
2013-08-11 15:02:00,73.9,48.7,30.09,NW,315,0.0,3.0,41,0.00,,,0.00,meteohub,2013-08-11 19:02:00,
2013-08-11 15:07:00,73.9,48.7,30.09,NW,315,2.0,3.0,41,0.00,,,0.00,meteohub,2013-08-11 19:07:00,
2013-08-11 15:12:00,74.1,49.6,30.09,North,0,1.0,3.0,42,0.00,,,0.00,meteohub,2013-08-11 19:12:00,
2013-08-11 15:17:00,74.1,49.6,30.09,NW,315,0.0,3.0,42,0.00,,,0.00,meteohub,2013-08-11 19:17:00,
2013-08-11 15:23:00,74.1,49.6,30.09,SSE,158,0.0,3.0,42,0.00,,,0.00,meteohub,2013-08-11 19:23:00,
2013-08-11 15:32:00,73.8,49.8,30.09,North,0,3.0,4.0,43,0.00,,,0.00,meteohub,2013-08-11 19:32:00,
2013-08-11 15:37:00,73.6,49.6,30.09,NW,315,0.0,4.0,43,0.00,,,0.00,meteohub,2013-08-11 19:37:00,
2013-08-11 15:42:00,73.6,49.6,30.09,NW,315,0.0,3.0,43,0.00,,,0.00,meteohub,2013-08-11 19:42:00,
2013-08-11 15:47:00,73.9,50.7,30.09,WSW,248,0.0,3.0,44,0.00,,,0.00,meteohub,2013-08-11 19:47:00,
2013-08-11 15:52:00,74.1,51.4,30.09,SW,225,3.0,3.0,45,0.00,,,0.00,meteohub,2013-08-11 19:52:00,
2013-08-11 15:57:00,74.1,51.4,30.09,NW,315,1.0,6.0,45,0.00,,,0.00,meteohub,2013-08-11 19:57:00,
2013-08-11 16:03:00,73.9,51.3,30.09,SW,225,0.0,6.0,45,0.00,,,0.00,meteohub,2013-08-11 20:03:00,
2013-08-11 16:12:00,74.1,52.7,30.06,NNW,338,2.0,6.0,47,0.00,,,0.00,meteohub,2013-08-11 20:12:00,
2013-08-11 16:22:00,73.9,51.3,30.06,NW,315,0.0,6.0,45,0.00,,,0.00,meteohub,2013-08-11 20:22:00,
2013-08-11 16:27:00,74.1,51.4,30.06,West,270,1.0,3.0,45,0.00,,,0.00,meteohub,2013-08-11 20:27:00,
2013-08-11 16:37:00,73.8,51.1,30.06,SW,225,0.0,4.0,45,0.00,,,0.00,meteohub,2013-08-11 20:37:00,
2013-08-11 16:47:00,73.9,51.3,30.06,SSE,158,0.0,4.0,45,0.00,,,0.00,meteohub,2013-08-11 20:47:00,
2013-08-11 16:52:00,73.8,51.6,30.06,NW,315,0.0,4.0,46,0.00,,,0.00,meteohub,2013-08-11 20:52:00,
2013-08-11 17:02:00,74.1,52.0,30.06,NW,315,1.0,2.0,46,0.00,,,0.00,meteohub,2013-08-11 21:02:00,
2013-08-11 17:07:00,74.3,51.6,30.06,NNW,338,0.0,2.0,45,0.00,,,0.00,meteohub,2013-08-11 21:07:00,
2013-08-11 17:12:00,74.3,52.2,30.06,NW,315,0.0,2.0,46,0.00,,,0.00,meteohub,2013-08-11 21:12:00,
2013-08-11 17:17:00,74.3,52.2,30.06,NW,315,2.0,2.0,46,0.00,,,0.00,meteohub,2013-08-11 21:17:00,
2013-08-11 17:22:00,74.3,52.2,30.03,WSW,248,0.0,3.0,46,0.00,,,0.00,meteohub,2013-08-11 21:22:00,
2013-08-11 17:27:00,74.3,52.2,30.03,WNW,292,1.0,3.0,46,0.00,,,0.00,meteohub,2013-08-11 21:27:00,
2013-08-11 17:32:00,74.3,52.2,30.03,SW,225,0.0,4.0,46,0.00,,,0.00,meteohub,2013-08-11 21:32:00,
2013-08-11 17:42:00,74.1,52.0,30.06,SW,225,0.0,5.0,46,0.00,,,0.00,meteohub,2013-08-11 21:42:00,
2013-08-11 17:47:00,74.1,51.4,30.06,SW,225,0.0,5.0,45,0.00,,,0.00,meteohub,2013-08-11 21:47:00,
2013-08-11 17:52:00,73.9,51.8,30.06,SW,225,0.0,5.0,46,0.00,,,0.00,meteohub,2013-08-11 21:52:00,
2013-08-11 17:57:00,74.1,51.4,30.06,WNW,292,0.0,4.0,45,0.00,,,0.00,meteohub,2013-08-11 21:57:00,
2013-08-11 18:02:00,74.1,52.0,30.06,WNW,292,0.0,3.0,46,0.00,,,0.00,meteohub,2013-08-11 22:02:00,
2013-08-11 18:07:00,73.9,51.8,30.06,WNW,292,0.0,3.0,46,0.00,,,0.00,meteohub,2013-08-11 22:07:00,
2013-08-11 18:17:00,73.6,52.2,30.06,WSW,248,1.0,4.0,47,0.00,,,0.00,meteohub,2013-08-11 22:17:00,
2013-08-11 18:22:00,73.4,52.0,30.06,WSW,248,0.0,4.0,47,0.00,,,0.00,meteohub,2013-08-11 22:22:00,
2013-08-11 18:27:00,73.2,52.3,30.06,WNW,292,0.0,2.0,48,0.00,,,0.00,meteohub,2013-08-11 22:27:00,
2013-08-11 18:37:00,72.9,52.5,30.06,WSW,248,0.0,2.0,49,0.00,,,0.00,meteohub,2013-08-11 22:37:00,
2013-08-11 18:47:00,72.7,52.5,30.06,SSW,202,0.0,2.0,49,0.00,,,0.00,meteohub,2013-08-11 22:47:00,
2013-08-11 18:52:00,72.5,52.9,30.06,West,270,0.0,2.0,50,0.00,,,0.00,meteohub,2013-08-11 22:52:00,
2013-08-11 18:57:00,72.3,52.2,30.06,West,270,0.0,2.0,49,0.00,,,0.00,meteohub,2013-08-11 22:57:00,
2013-08-11 19:07:00,72.0,52.3,30.06,SW,225,0.0,2.0,50,0.00,,,0.00,meteohub,2013-08-11 23:07:00,
2013-08-11 19:12:00,72.0,52.3,30.06,SW,225,0.0,0.0,50,0.00,,,0.00,meteohub,2013-08-11 23:12:00,
2013-08-11 19:17:00,71.8,52.2,30.06,SW,225,0.0,0.0,50,0.00,,,0.00,meteohub,2013-08-11 23:17:00,
2013-08-11 19:22:00,71.6,52.5,30.06,SW,225,0.0,0.0,51,0.00,,,0.00,meteohub,2013-08-11 23:22:00,
2013-08-11 19:32:00,71.4,53.4,30.06,SSW,202,0.0,0.0,53,0.00,,,0.00,meteohub,2013-08-11 23:32:00,
2013-08-11 19:37:00,71.2,53.2,30.06,SSW,202,0.0,0.0,53,0.00,,,0.00,meteohub,2013-08-11 23:37:00,
2013-08-11 19:42:00,71.1,53.1,30.06,SSW,202,0.0,0.0,53,0.00,,,0.00,meteohub,2013-08-11 23:42:00,
2013-08-11 19:47:00,70.9,53.4,30.06,SSW,202,0.0,0.0,54,0.00,,,0.00,meteohub,2013-08-11 23:47:00,
2013-08-11 19:52:00,70.5,54.5,30.06,SSW,202,0.0,0.0,57,0.00,,,0.00,meteohub,2013-08-11 23:52:00,
2013-08-11 19:57:00,70.2,54.7,30.06,SSW,202,0.0,0.0,58,0.00,,,0.00,meteohub,2013-08-11 23:57:00,
2013-08-11 20:02:00,69.6,55.0,30.06,SSW,202,0.0,0.0,60,0.00,,,0.00,meteohub,2013-08-12 00:02:00,
2013-08-11 20:07:00,69.4,55.4,30.06,SSW,202,0.0,0.0,61,0.00,,,0.00,meteohub,2013-08-12 00:07:00,
2013-08-11 20:12:00,68.7,55.2,30.06,SSW,202,0.0,0.0,62,0.00,,,0.00,meteohub,2013-08-12 00:12:00,
2013-08-11 20:17:00,68.5,55.4,30.06,SSW,202,0.0,0.0,63,0.00,,,0.00,meteohub,2013-08-12 00:17:00,
2013-08-11 20:22:00,68.4,55.8,30.06,SSW,202,0.0,0.0,64,0.00,,,0.00,meteohub,2013-08-12 00:22:00,
2013-08-11 20:27:00,68.0,55.8,30.06,SSW,202,0.0,0.0,65,0.00,,,0.00,meteohub,2013-08-12 00:27:00,
2013-08-11 20:37:00,67.3,56.3,30.06,SSW,202,0.0,0.0,68,0.00,,,0.00,meteohub,2013-08-12 00:37:00,
2013-08-11 20:42:00,67.1,56.7,30.06,SSW,202,0.0,0.0,69,0.00,,,0.00,meteohub,2013-08-12 00:42:00,
2013-08-11 20:52:00,66.4,55.9,30.06,SSW,202,0.0,0.0,69,0.00,,,0.00,meteohub,2013-08-12 00:52:00,
2013-08-11 20:57:00,66.0,55.9,30.06,SSW,202,0.0,0.0,70,0.00,,,0.00,meteohub,2013-08-12 00:57:00,
2013-08-11 21:02:00,65.8,55.8,30.06,SSW,202,0.0,0.0,70,0.00,,,0.00,meteohub,2013-08-12 01:02:00,
2013-08-11 21:07:00,66.0,55.9,30.06,SSE,158,0.0,1.0,70,0.00,,,0.00,meteohub,2013-08-12 01:07:00,
2013-08-11 21:12:00,66.4,55.9,30.06,SSW,202,0.0,2.0,69,0.00,,,0.00,meteohub,2013-08-12 01:12:00,
2013-08-11 21:17:00,66.4,55.9,30.06,South,180,0.0,2.0,69,0.00,,,0.00,meteohub,2013-08-12 01:17:00,
2013-08-11 21:22:00,66.6,56.5,30.09,South,180,0.0,0.0,70,0.00,,,0.00,meteohub,2013-08-12 01:22:00,
2013-08-11 21:27:00,66.4,56.3,30.09,South,180,0.0,0.0,70,0.00,,,0.00,meteohub,2013-08-12 01:27:00,
2013-08-11 21:32:00,66.2,56.1,30.09,South,180,0.0,0.0,70,0.00,,,0.00,meteohub,2013-08-12 01:32:00,
2013-08-11 21:37:00,66.2,56.1,30.09,South,180,0.0,0.0,70,0.00,,,0.00,meteohub,2013-08-12 01:37:00,
2013-08-11 21:47:00,66.2,56.1,30.09,South,180,0.0,1.0,70,0.00,,,0.00,meteohub,2013-08-12 01:47:00,
2013-08-11 21:57:00,66.2,55.8,30.09,South,180,0.0,1.0,69,0.00,,,0.00,meteohub,2013-08-12 01:57:00,
2013-08-11 22:02:00,66.0,55.6,30.09,South,180,0.0,0.0,69,0.00,,,0.00,meteohub,2013-08-12 02:02:00,
2013-08-11 22:07:00,66.0,55.6,30.09,South,180,0.0,0.0,69,0.00,,,0.00,meteohub,2013-08-12 02:07:00,
2013-08-11 22:17:00,65.8,55.8,30.09,SSW,202,0.0,0.0,70,0.00,,,0.00,meteohub,2013-08-12 02:17:00,
2013-08-11 22:22:00,65.8,55.8,30.09,SSW,202,0.0,0.0,70,0.00,,,0.00,meteohub,2013-08-12 02:22:00,
2013-08-11 22:27:00,65.5,56.3,30.09,SSW,202,0.0,0.0,72,0.00,,,0.00,meteohub,2013-08-12 02:27:00,
2013-08-11 22:32:00,65.1,55.9,30.09,SSW,202,0.0,0.0,72,0.00,,,0.00,meteohub,2013-08-12 02:32:00,
2013-08-11 22:37:00,64.6,55.8,30.09,SSW,202,0.0,0.0,73,0.00,,,0.00,meteohub,2013-08-12 02:37:00,
2013-08-11 22:47:00,64.4,55.6,30.09,SSW,202,0.0,0.0,73,0.00,,,0.00,meteohub,2013-08-12 02:47:00,
2013-08-11 22:52:00,64.4,55.6,30.09,SSW,202,0.0,0.0,73,0.00,,,0.00,meteohub,2013-08-12 02:52:00,
2013-08-11 22:57:00,64.2,55.4,30.09,SSW,202,0.0,0.0,73,0.00,,,0.00,meteohub,2013-08-12 02:57:00,
2013-08-11 23:02:00,64.0,55.6,30.09,SW,225,0.0,0.0,74,0.00,,,0.00,meteohub,2013-08-12 03:02:00,
2013-08-11 23:07:00,64.0,55.6,30.09,South,180,0.0,0.0,74,0.00,,,0.00,meteohub,2013-08-12 03:07:00,
2013-08-11 23:12:00,64.0,55.6,30.09,South,180,0.0,0.0,74,0.00,,,0.00,meteohub,2013-08-12 03:12:00,
2013-08-11 23:17:00,64.0,55.9,30.09,SW,225,0.0,0.0,75,0.00,,,0.00,meteohub,2013-08-12 03:17:00,
2013-08-11 23:22:00,64.0,56.3,30.09,SSW,202,0.0,0.0,76,0.00,,,0.00,meteohub,2013-08-12 03:22:00,
2013-08-11 23:27:00,63.9,56.1,30.09,SW,225,0.0,0.0,76,0.00,,,0.00,meteohub,2013-08-12 03:27:00,
2013-08-11 23:32:00,64.0,56.7,30.09,SW,225,0.0,1.0,77,0.00,,,0.00,meteohub,2013-08-12 03:32:00,
2013-08-11 23:37:00,64.0,56.7,30.09,South,180,0.0,1.0,77,0.00,,,0.00,meteohub,2013-08-12 03:37:00,
2013-08-11 23:42:00,64.0,56.7,30.09,SW,225,0.0,1.0,77,0.00,,,0.00,meteohub,2013-08-12 03:42:00,
2013-08-11 23:47:00,63.9,56.5,30.09,SSW,202,0.0,2.0,77,0.00,,,0.00,meteohub,2013-08-12 03:47:00,
2013-08-11 23:52:00,63.9,56.8,30.09,South,180,0.0,2.0,78,0.00,,,0.00,meteohub,2013-08-12 03:52:00,
2013-08-11 23:57:00,63.9,56.8,30.09,SSW,202,0.0,2.0,78,0.00,,,0.00,meteohub,2013-08-12 03:57:00,